• In Italy
  • List of Countries
  • For 7 days
  • Water Temperature
  • Satellite Maps
  • Weather Map
  • Weather Widgets
  • user-avatar
    Login

    Hourly Weather Vatican

    Today, 22 January, Monday

    Time Temperature Precipitation Wind Pressure Humidity
    00:00 +10°C° 0 mm 4 mps 758 mmHg 74%
    01:00 +9°C° 0 mm 3 mps 758 mmHg 74%
    02:00 +9°C° 0 mm 3 mps 758 mmHg 73%
    03:00 +9°C° 0 mm 3 mps 758 mmHg 71%
    04:00 +9°C° 0 mm 3 mps 758 mmHg 70%
    05:00 +9°C° 0 mm 3 mps 758 mmHg 70%
    06:00 +7°C° 0 mm 4 mps 759 mmHg 70%
    07:00 +7°C° 0 mm 4 mps 759 mmHg 70%
    08:00 +8°C° 0 mm 5 mps 759 mmHg 68%
    09:00 +9°C° 0 mm 5 mps 759 mmHg 65%
    10:00 +10°C° 0 mm 5 mps 759 mmHg 63%
    11:00 +11°C° 0 mm 6 mps 759 mmHg 62%
    12:00 +11°C° 0 mm 6 mps 759 mmHg 61%
    13:00 +13°C° 0 mm 6 mps 759 mmHg 60%
    14:00 +13°C° 0 mm 5 mps 759 mmHg 62%
    15:00 +12°C° 0 mm 5 mps 759 mmHg 63%
    16:00 +12°C° 0 mm 5 mps 758 mmHg 64%
    17:00 +10°C° 0 mm 5 mps 758 mmHg 66%
    18:00 +10°C° 0 mm 5 mps 758 mmHg 68%
    19:00 +10°C° 0 mm 4 mps 759 mmHg 71%
    20:00 +10°C° 0 mm 4 mps 759 mmHg 71%
    21:00 +10°C° 0 mm 4 mps 759 mmHg 72%
    22:00 +8°C° 0 mm 4 mps 759 mmHg 73%
    23:00 +8°C° 0 mm 4 mps 759 mmHg 73%

    Tomorrow, 23 January, Tuesday

    Time Temperature Precipitation Wind Pressure Humidity
    00:00 +8°C° 0 mm 4 mps 759 mmHg 73%
    01:00 +8°C° 0 mm 4 mps 759 mmHg 72%
    02:00 +8°C° 0 mm 4 mps 759 mmHg 71%
    03:00 +8°C° 0 mm 4 mps 759 mmHg 71%
    04:00 +8°C° 0 mm 4 mps 759 mmHg 70%
    05:00 +9°C° 0 mm 3 mps 760 mmHg 70%
    06:00 +9°C° 0 mm 3 mps 760 mmHg 71%
    07:00 +8°C° 0 mm 3 mps 761 mmHg 71%
    08:00 +9°C° 0 mm 2 mps 762 mmHg 68%
    09:00 +10°C° 0 mm 2 mps 762 mmHg 65%
    10:00 +13°C° 0 mm 2 mps 763 mmHg 61%
    11:00 +14°C° 0 mm 2 mps 763 mmHg 58%
    12:00 +15°C° 0 mm 2 mps 763 mmHg 56%
    13:00 +16°C° 0 mm 1 mps 763 mmHg 53%
    14:00 +16°C° 0 mm 1 mps 764 mmHg 55%
    15:00 +15°C° 0 mm 1 mps 764 mmHg 58%
    16:00 +15°C° 0 mm 1 mps 764 mmHg 61%
    17:00 +14°C° 0 mm 1 mps 765 mmHg 65%
    18:00 +13°C° 0 mm 1 mps 766 mmHg 69%
    19:00 +12°C° 0 mm 1 mps 766 mmHg 73%
    20:00 +12°C° 0 mm 1 mps 767 mmHg 74%
    21:00 +11°C° 0 mm 1 mps 767 mmHg 74%
    22:00 +11°C° 0 mm 1 mps 768 mmHg 74%
    23:00 +10°C° 0 mm 2 mps 768 mmHg 74%

    Day after tomorrow, 24 January, Wednesday

    Time Temperature Precipitation Wind Pressure Humidity
    00:00 +10°C° 0 mm 2 mps 768 mmHg 74%
    01:00 +10°C° 0 mm 2 mps 769 mmHg 74%
    02:00 +9°C° 0 mm 2 mps 769 mmHg 73%
    03:00 +9°C° 0 mm 2 mps 769 mmHg 72%
    04:00 +9°C° 0 mm 2 mps 769 mmHg 71%
    05:00 +9°C° 0 mm 2 mps 769 mmHg 69%
    06:00 +9°C° 0 mm 2 mps 769 mmHg 68%
    07:00 +8°C° 0 mm 2 mps 770 mmHg 66%
    08:00 +10°C° 0 mm 2 mps 770 mmHg 62%
    09:00 +12°C° 0 mm 2 mps 770 mmHg 57%
    10:00 +13°C° 0 mm 2 mps 771 mmHg 53%
    11:00 +14°C° 0 mm 2 mps 770 mmHg 51%
    12:00 +15°C° 0 mm 2 mps 770 mmHg 50%
    13:00 +16°C° 0 mm 1 mps 770 mmHg 48%
    14:00 +16°C° 0 mm 1 mps 770 mmHg 51%
    15:00 +15°C° 0 mm 1 mps 770 mmHg 55%
    16:00 +15°C° 0 mm 1 mps 770 mmHg 58%
    17:00 +14°C° 0 mm 1 mps 770 mmHg 62%
    18:00 +13°C° 0 mm 1 mps 770 mmHg 66%
    19:00 +12°C° 0 mm 1 mps 770 mmHg 71%
    20:00 +11°C° 0 mm 1 mps 770 mmHg 71%
    21:00 +11°C° 0 mm 1 mps 770 mmHg 72%
    22:00 +11°C° 0 mm 1 mps 771 mmHg 72%
    23:00 +11°C° 0 mm 1 mps 770 mmHg 72%

    25 January, Thursday

    Time Temperature Precipitation Wind Pressure Humidity
    00:00 +10°C° 0 mm 1 mps 770 mmHg 73%
    01:00 +10°C° 0 mm 1 mps 770 mmHg 73%
    02:00 +9°C° 0 mm 2 mps 770 mmHg 73%
    03:00 +9°C° 0 mm 2 mps 770 mmHg 73%
    04:00 +9°C° 0 mm 2 mps 769 mmHg 74%
    05:00 +8°C° 0 mm 2 mps 769 mmHg 73%
    06:00 +8°C° 0 mm 2 mps 769 mmHg 72%
    07:00 +8°C° 0 mm 2 mps 769 mmHg 72%
    08:00 +9°C° 0 mm 3 mps 769 mmHg 68%
    09:00 +11°C° 0 mm 3 mps 769 mmHg 65%
    10:00 +12°C° 0 mm 3 mps 769 mmHg 61%
    11:00 +12°C° 0 mm 3 mps 769 mmHg 60%
    12:00 +13°C° 0 mm 3 mps 768 mmHg 59%
    13:00 +14°C° 0 mm 4 mps 767 mmHg 57%
    14:00 +14°C° 0 mm 4 mps 767 mmHg 60%
    15:00 +13°C° 0 mm 4 mps 767 mmHg 62%
    16:00 +13°C° 0 mm 4 mps 766 mmHg 64%
    17:00 +12°C° 0 mm 5 mps 766 mmHg 68%
    18:00 +10°C° 0 mm 5 mps 766 mmHg 72%
    19:00 +9°C° 0 mm 5 mps 766 mmHg 76%
    20:00 +9°C° 0 mm 5 mps 766 mmHg 77%
    21:00 +9°C° 0 mm 6 mps 766 mmHg 78%
    22:00 +9°C° 0 mm 6 mps 766 mmHg 78%
    23:00 +9°C° 0.1 mm 6 mps 766 mmHg 77%

    26 January, Friday

    Time Temperature Precipitation Wind Pressure Humidity
    00:00 +9°C° 0.1 mm 6 mps 765 mmHg 76%
    01:00 +9°C° 0.1 mm 6 mps 765 mmHg 75%
    02:00 +9°C° 0.2 mm 6 mps 765 mmHg 75%
    03:00 +9°C° 0.2 mm 6 mps 764 mmHg 75%
    04:00 +9°C° 0.2 mm 7 mps 764 mmHg 75%
    05:00 +9°C° 0.1 mm 7 mps 764 mmHg 77%
    06:00 +9°C° 0.1 mm 7 mps 764 mmHg 79%
    07:00 +9°C° 0.1 mm 7 mps 763 mmHg 81%
    08:00 +10°C° 0.2 mm 7 mps 763 mmHg 81%
    09:00 +10°C° 0.2 mm 7 mps 764 mmHg 81%
    10:00 +11°C° 0.2 mm 8 mps 764 mmHg 81%
    11:00 +11°C° 0.1 mm 8 mps 763 mmHg 81%
    12:00 +11°C° 0.1 mm 8 mps 763 mmHg 81%
    13:00 +12°C° 0.1 mm 8 mps 763 mmHg 81%
    14:00 +12°C° 0.1 mm 8 mps 762 mmHg 81%
    15:00 +12°C° 0.1 mm 8 mps 762 mmHg 82%
    16:00 +12°C° 0.1 mm 8 mps 762 mmHg 82%
    17:00 +11°C° 0.1 mm 8 mps 762 mmHg 83%
    18:00 +11°C° 0.1 mm 8 mps 762 mmHg 84%
    19:00 +11°C° 0.1 mm 8 mps 763 mmHg 85%
    20:00 +11°C° 0.1 mm 8 mps 763 mmHg 85%
    21:00 +10°C° 0.1 mm 8 mps 763 mmHg 85%
    22:00 +10°C° 0.1 mm 7 mps 763 mmHg 85%
    23:00 +10°C° 0.3 mm 7 mps 763 mmHg 84%

    27 January, Saturday

    Time Temperature Precipitation Wind Pressure Humidity
    00:00 +10°C° 0.3 mm 7 mps 763 mmHg 84%
    01:00 +10°C° 0.3 mm 7 mps 763 mmHg 84%
    02:00 +10°C° 0.5 mm 7 mps 763 mmHg 84%
    03:00 +10°C° 0.5 mm 7 mps 763 mmHg 84%
    04:00 +10°C° 0.5 mm 7 mps 763 mmHg 84%
    05:00 +10°C° 0.5 mm 7 mps 763 mmHg 85%
    06:00 +10°C° 0.5 mm 6 mps 763 mmHg 85%
    07:00 +10°C° 0.5 mm 6 mps 763 mmHg 85%
    08:00 +10°C° 0.2 mm 6 mps 763 mmHg 83%
    09:00 +11°C° 0.2 mm 7 mps 764 mmHg 80%
    10:00 +12°C° 0.2 mm 7 mps 764 mmHg 78%
    11:00 +12°C° 0.1 mm 7 mps 764 mmHg 75%
    12:00 +14°C° 0.1 mm 6 mps 764 mmHg 73%
    13:00 +15°C° 0.1 mm 6 mps 764 mmHg 70%
    14:00 +14°C° 0 mm 6 mps 764 mmHg 71%
    15:00 +14°C° 0 mm 6 mps 764 mmHg 72%
    16:00 +14°C° 0 mm 6 mps 764 mmHg 73%
    17:00 +13°C° 0 mm 6 mps 765 mmHg 76%
    18:00 +12°C° 0 mm 5 mps 765 mmHg 80%
    19:00 +10°C° 0 mm 5 mps 766 mmHg 83%
    20:00 +10°C° 0 mm 5 mps 767 mmHg 83%
    21:00 +11°C° 0 mm 4 mps 767 mmHg 83%
    22:00 +11°C° 0 mm 4 mps 768 mmHg 83%
    23:00 +10°C° 0 mm 4 mps 768 mmHg 83%
    Show more